app download

Omamori Himari

Omamori Himari
Rating: 9.6 of 600354 person votes
Rank 1553 /20,1487
Alternative: Защитница Химари;おまもりひまり;守护猫娘绯鞠;猫耳属性;Commence Operation!;Joukyou Kaishi!;Protective Charm Himari;
Artists: Matra Milan
Author(s): Matra Milan
Genres: RomanceShounenSupernaturalActionSlice of lifeEcchiHarem
Release: 2015
Status: Complete
Summary:

Sixteen-year-old orphan Yuuto Amakawa has terrible cat allergies. So when he finds himself suddenly face to face with a beautiful girl who makes those allergies act up one morning, he’s left wondering about her identity. And when she saves Yuuto and his friends from a demon spirit with a very real, very sharp sword, she reveals herself as a sworn protector of the Amakawa family and a demon spirit to boot! Poor Yuuto, now that he’s living with an otherworldy samurai catgirl, his runny nose is the least of his worries!

vol.09 ch.057 : Water, Cat, and Illusion House 21 Pages 2017-12-23 03:22:12
vol.09 ch.056 : Cat in the Night Wind 31 Pages 2017-12-23 03:22:12
vol.09 ch.055 : Dream Stage of the Twilight Cat 23 Pages 2012-08-23 00:00:00
vol.09 ch.054 : The Car's Merry-Merry-Go-Round 25 Pages 2012-08-18 00:00:00
vol.09 ch.053 : Cat and Meeting 17 Pages 2012-08-05 00:00:00
vol.09 ch.052 : Round Table vs. Cat 27 Pages 2012-07-31 00:00:00
vol.12 ch.75 : A Cat, a Girl, and the Place for Tomorrow 32 Pages 2014-01-16 18:49:00
vol.12 ch.74 : The Ending of the Cat’s World 26 Pages 2014-01-16 18:48:00
vol.12 ch.73 : Phantasmagoria in White Cat 25 Pages 2014-01-16 18:48:00
vol.12 ch.72 : Phantasmagoria in Cat 21 Pages 2014-01-16 18:49:00
vol.12 ch.71 : The Light Beam’s Wild Cat 24 Pages 2014-01-16 18:47:00
vol.12 ch.70 : A Prompt Cat Rondo 21 Pages 2014-01-01 14:40:00
vol.12 ch.69 : The Assault Cat’s Homeroom 31 Pages 2014-01-01 14:40:00
vol.11 ch.68 : A Broken Cat's Shadow on a Clear Mirror 27 Pages 2013-11-22 21:52:00
vol.11 ch.67 : A Cat Trigger for a Chaotic Ending 25 Pages 2013-11-15 00:51:00
vol.11 ch.66 : The Cat Trigger for an Accidental Discharge 25 Pages 2013-10-07 00:45:00
vol.11 ch.65 : The Stagnant Witch Cat’s Juncture 27 Pages 2013-09-09 00:15:00
vol.11 ch.64 : The Cat Looking for a Blue Sky 25 Pages 2013-08-10 00:17:00
vol.11 ch.63 : The Gouging Demon Cat's Fangs 23 Pages 2013-03-15 00:00:00
vol.08 ch.051 : Cat at the Demon-Slaver's Round Table 21 Pages 2017-12-23 03:22:12
vol.08 ch.050 : Complicated Cat Ballad 21 Pages 2017-12-23 03:22:12
vol.08 ch.049 : The Cat of the Gracefully Falling Spiral 35 Pages 2017-12-23 03:22:12
vol.08 ch.048 : Cats Playing In The Demon Month 25 Pages 2012-09-07 00:00:00
vol.08 ch.047 : Demon Claws vs Cat Claws 25 Pages 2012-09-07 00:00:00
vol.08 ch.046 : The Cat Runs In to The Hitchery 25 Pages 2012-09-07 00:00:00
vol.08 ch.045 : Tests For Cats Are Taken At Night 25 Pages 2012-09-07 00:00:00
vol.10 ch.075 : A Cat, a Girl, and the Place for Tomorrow 32 Pages 2017-12-23 03:20:11
vol.10 ch.074 : The Ending of the Cat’s World 26 Pages 2017-12-23 03:20:11
vol.10 ch.073 : Phantasmagoria in White Cat 25 Pages 2017-12-23 03:20:11
vol.10 ch.072 : Phantasmagoria in Cat 21 Pages 2017-12-23 03:20:11
vol.10 ch.071 : The Light Beam’s Wild Cat 24 Pages 2017-12-23 03:20:11
vol.10 ch.070 21 Pages 2017-12-23 03:20:11
vol.10 ch.069 31 Pages 2017-12-23 03:20:11
vol.10 ch.068 : A Broken Cat's Shadow on a Clear Mirror 27 Pages 2017-12-23 03:20:11
vol.10 ch.067 25 Pages 2017-12-23 03:21:11
vol.10 ch.066 25 Pages 2017-12-23 03:21:11
vol.10 ch.065 : The Stagnant Witch Cat’s Juncture 27 Pages 2017-12-23 03:21:11
vol.10 ch.064 : The Cat Looking for a Blue Sky 25 Pages 2017-12-23 03:21:11
vol.10 ch.063 : The gouging demon cat's fangs 23 Pages 2017-12-23 03:21:11
vol.10 ch.062 : The Cat that Bites the Cornered Rat 25 Pages 2012-12-27 00:00:00
vol.10 ch.061 : The Dreaming Cat Can No Longer Return 21 Pages 2012-12-30 00:00:00
vol.10 ch.060 : After This, Small Feline Magic 23 Pages 2012-12-30 00:00:00
vol.10 ch.059 : The Moment the Cat Witch Wavers 23 Pages 2012-11-27 00:00:00
vol.10 ch.058 : Pure Lips of the Cat Dream 25 Pages 2012-11-02 00:00:00
vol.10 ch.62 : The Cat that Bites the Cornered Rat 25 Pages 2012-12-27 00:00:00
vol.10 ch.61 : The Dreaming Cat Can No Longer Return 21 Pages 2012-12-30 00:00:00
vol.10 ch.60 : After This, Small Feline Magic 23 Pages 2012-12-30 00:00:00
vol.10 ch.59 : The Moment the Cat Witch Wavers 23 Pages 2012-11-27 00:00:00
vol.10 ch.58 : Pure Lips of the Cat Dream 25 Pages 2012-11-02 00:00:00
vol.10 ch.57 : Water, Cat, and Illusion House 21 Pages 2012-09-12 00:00:00
vol.10 ch.56 : Cat in the Night Wind 31 Pages 2012-09-07 00:00:00
vol.9 ch.55 : Dream Stage of the Twilight Cat 23 Pages 2012-08-23 00:00:00
vol.9 ch.54 : The Car's Merry-Merry-Go-Round 25 Pages 2012-08-18 00:00:00
vol.9 ch.53 : Cat and Meeting 17 Pages 2012-08-05 00:00:00
vol.9 ch.52 : Round Table v.s. Cat 27 Pages 2012-07-31 00:00:00
vol.9 ch.51 : Cat at the Demon-Slaver's Round Table 21 Pages 2012-07-25 00:00:00
vol.9 ch.50 : Complicated Cat Ballad 21 Pages 2012-05-23 00:00:00
vol.9 ch.49 : The Cat of the Gracefully Falling Spiral 35 Pages 2012-05-17 00:00:00
vol.8 ch.48 : Cats Playing in the Demon Month 25 Pages 2012-09-07 00:00:00
vol.8 ch.47 : Demon Claws Vs. Cat Claws 25 Pages 2012-09-07 00:00:00
vol.8 ch.46 : The Cat Runs Into the Hatchery 25 Pages 2012-09-07 00:00:00
vol.8 ch.45 : Tests For Cats Are Taken At Night 25 Pages 2012-09-07 00:00:00
vol.8 ch.44 : The Cats' (Mini) Twilight 27 Pages 2012-09-07 00:00:00
vol.8 ch.43 : Steamy Cat Fight ☆ Super Mobile Angel 33 Pages 2012-09-07 00:00:00
vol.07 ch.044 : The Cat's Twilight 27 Pages 2017-12-23 03:23:12
vol.07 ch.043 : Steamy Cat Fight 33 Pages 2017-12-23 03:23:12
vol.07 ch.042 : Scarlet's Yasotsuna 25 Pages 2012-09-07 00:00:00
vol.07 ch.041 : The Traveling Cat At Nightfall Special 23 Pages 2012-09-07 00:00:00
vol.07 ch.040 : Snow Cat And The Incomplete Snow 21 Pages 2012-09-07 00:00:00
vol.07 ch.039 : I Must Protect MY Master And Comrades 24 Pages 2012-09-07 00:00:00
vol.7 ch.42 : Steamy Cat Fight ☆ Scarlet's Yasutsuna 25 Pages 2012-09-07 00:00:00
vol.7 ch.41 : The Traveling Cat at Nightfall Special 23 Pages 2012-09-07 00:00:00
vol.7 ch.40 : Snow Cat and the Incomplete Snow 21 Pages 2012-09-07 00:00:00
vol.7 ch.39 24 Pages 2012-09-07 00:00:00
vol.06 ch.038 : Cat's With Sharp Claws Don't Look Around 20 Pages 2010-01-22 00:00:00
vol.06 ch.037 : The Cat's Wintry Poetry 21 Pages 2010-01-04 00:00:00
vol.06 ch.036 : Dance Of The Merciless Cat 22 Pages 2009-10-22 00:00:00
vol.06 ch.035 : The Cat's Christmas Eve War 25 Pages 2009-09-20 00:00:00
vol.06 ch.034 : Full Throttle Afterimage, Cat Version 21 Pages 2009-08-12 00:00:00
vol.6 ch.38 : Cat's With Sharp Claws Don't Look Around 20 Pages 2010-01-22 00:00:00
vol.6 ch.37 : The Cat's Wintry Poetry 21 Pages 2010-01-04 00:00:00
vol.6 ch.36 : Dance Of The Merciless Cat 22 Pages 2009-10-22 00:00:00
vol.6 ch.35 : The Cat's Christmas Eve War 25 Pages 2009-09-20 00:00:00
vol.6 ch.34 : Full Throttle Afterimage, Cat Version 21 Pages 2009-08-12 00:00:00
vol.05 ch.030 : And the cat begins to move 26 Pages 2009-05-27 00:00:00
vol.05 ch.029 : Still an ordinary cat 19 Pages 2009-04-07 00:00:00
vol.05 ch.028 : The meow that called in the darkness 32 Pages 2009-03-04 00:00:00
vol.05 ch.033 : The Cat's Night and the wet Snake 28 Pages 2009-08-03 00:00:00
vol.05 ch.027 : Miss Neko Festival 24 Pages 2009-02-04 00:00:00
vol.05 ch.032 : The Bad Forecast And The Uncertain Cat 25 Pages 2009-07-31 00:00:00
vol.05 ch.026 : The Kitten's form is in the Blood 29 Pages 2009-02-14 00:00:00
vol.05 ch.031 : The corroding world of the ayakashi 17 Pages 2009-07-30 00:00:00
vol.05 ch.025 : Counter Attack of the Loli Neko 25 Pages 2009-02-01 00:00:00
vol.5 ch.33 : The Cat's Night and the wet Snake 28 Pages 2009-08-03 00:00:00
vol.5 ch.32 : The Bad Forecast And The Uncertain Cat 25 Pages 2009-07-31 00:00:00
vol.5 ch.31 : The corroding world of the ayakashi 17 Pages 2009-07-30 00:00:00
vol.5 ch.30 : And the cat begins to move 26 Pages 2009-05-27 00:00:00
vol.5 ch.29 : Still an ordinary cat 19 Pages 2009-04-07 00:00:00
vol.5 ch.28 : The meow that called in the darkness 32 Pages 2009-03-04 00:00:00
vol.5 ch.27 : Miss Neko Festival 24 Pages 2009-02-04 00:00:00
vol.5 ch.26 : The Kitten's form is in the Blood 29 Pages 2009-02-14 00:00:00
vol.5 ch.25 : Counter Attack of the Loli Neko 25 Pages 2009-02-01 00:00:00
vol.04 ch.024.5 : Hot Spring Extra 10 Pages 2009-01-27 00:00:00
vol.04 ch.024 : Kitten Impossible 30 Pages 2008-12-08 00:00:00
vol.04 ch.023 : Neko-neko Phantasm 25 Pages 2008-12-05 00:00:00
vol.04 ch.022 : The Artistic Neko and Cliff-fall Memory 27 Pages 2008-11-22 00:00:00
vol.04 ch.021 : Curiosity Killed the Cat 26 Pages 2008-07-02 00:00:00
vol.04 ch.020 : Drunken Ailurophobia 30 Pages 2008-05-11 00:00:00
vol.04 ch.019 : The Capriccio of the Kittens 27 Pages 2008-05-11 00:00:00
vol.03 ch.018 : ...And the Cat Begins the Confrontation 25 Pages 2008-05-01 00:00:00
vol.03 ch.017 : The Cats Emotions And The Magic Girls Melancholy 26 Pages 2008-04-22 00:00:00
vol.03 ch.016 : Chu x Cat X Kiss 29 Pages 2008-03-23 00:00:00
vol.03 ch.015 : The Cat Proudly Fighting Back 25 Pages 2008-03-10 00:00:00
vol.03 ch.014 : The Usual Mindset of the Frustrated Cat 25 Pages 2008-03-10 00:00:00
vol.03 ch.013 : The Cat's Memories And Science 29 Pages 2008-02-01 00:00:00
vol.4 ch.24.5 : Hot Spring Extra 10 Pages 2009-01-27 00:00:00
vol.4 ch.24 : Kitten Impossible 30 Pages 2008-12-08 00:00:00
vol.4 ch.23 : Neko-neko Phantasm 25 Pages 2008-12-05 00:00:00
vol.4 ch.22 : The Artistic Neko and Cliff-fall Memory 27 Pages 2008-11-22 00:00:00
vol.4 ch.21 : Curiosity Killed the Cat 26 Pages 2008-07-02 00:00:00
vol.4 ch.20 : Drunken Ailurophobia 30 Pages 2008-05-11 00:00:00
vol.4 ch.19 : The Capriccio of the Kittens 27 Pages 2008-05-11 00:00:00
vol.3 ch.18.5 : ...And the Cat Begins the Confrontation 25 Pages 2008-12-01 00:00:00
vol.3 ch.18 : ...And the Cat Begins the Confrontation 25 Pages 2008-05-01 00:00:00
vol.3 ch.17 : The Cats Emotions And The Magic Girls Melancholy 26 Pages 2008-04-22 00:00:00
vol.3 ch.16 : Chu x Cat X Kiss 29 Pages 2008-03-23 00:00:00
vol.3 ch.15 : The Cat Proudly Fighting Back 25 Pages 2008-03-10 00:00:00
vol.3 ch.14 : The Usual Mindset of the Frustrated Cat 25 Pages 2008-03-10 00:00:00
vol.3 ch.13 : The Cat's Memories And Science 29 Pages 2008-02-01 00:00:00
vol.2 ch.12 : The Cat Who Lost Her Heart And The Boy Who Stole It 29 Pages 2008-02-01 00:00:00
vol.2 ch.11.5 : The Demon Cat Slayer 27 Pages 2008-02-01 00:00:00
vol.2 ch.11 : The Demon Cat Slayer 28 Pages 2008-01-18 00:00:00
vol.2 ch.10 : The Alluring Cat of Twilight 25 Pages 2007-12-31 00:00:00
vol.2 ch.9 : The Girl Who Loves Cats' Red Ribbon 25 Pages 2007-12-31 00:00:00
vol.2 ch.8 : Maid in Cat 30 Pages 2007-12-31 00:00:00
vol.2 ch.7 : A Cat in the Forest of Feelings 30 Pages 2007-12-31 00:00:00
vol.02 ch.012 : The Cat Who Lost Her Heart And The Boy Who Stole It 29 Pages 2008-02-01 00:00:00
vol.02 ch.011.5 : The Demon Cat Slayer 27 Pages 2008-02-01 00:00:00
vol.02 ch.011 : The Demon Cat Slayer 28 Pages 2008-01-18 00:00:00
vol.02 ch.010 : The Alluring Cat of Twilight 25 Pages 2007-12-31 00:00:00
vol.02 ch.009 : The Girl Who Loves Cats' Red Ribbon 25 Pages 2007-12-31 00:00:00
vol.02 ch.008 : Maid in Cat 30 Pages 2007-12-31 00:00:00
vol.02 ch.007 : A Cat in the Forest of Feelings 30 Pages 2007-12-31 00:00:00
vol.1 ch.6 : Cats and Water 26 Pages 2007-12-31 00:00:00
vol.1 ch.5 : An Ocean Cat's Scramble 30 Pages 2007-12-31 00:00:00
vol.1 ch.4 : A Neko-Tease Shopping Trip 25 Pages 2007-12-31 00:00:00
vol.1 ch.3 : Cat Claws 26 Pages 2007-12-31 00:00:00
vol.1 ch.2 : A Neko-Style Princess Bodyguard 28 Pages 2007-12-31 00:00:00
vol.1 ch.1 : Cats, Girls, and Allergies 35 Pages 2007-12-31 00:00:00
vol.01 ch.006 : Cats and Water 26 Pages 2007-12-31 00:00:00
vol.01 ch.005 : An Ocean Cat's Scramble 30 Pages 2007-12-31 00:00:00
vol.01 ch.004 : A Neko-Tease Shopping Trip 25 Pages 2007-12-31 00:00:00
vol.01 ch.003 : Cat Claws 26 Pages 2007-12-31 00:00:00
vol.01 ch.002 : A Neko-Style Princess Bodyguard 28 Pages 2007-12-31 00:00:00
vol.01 ch.001 : Cats, Girls, and Allergies 35 Pages 2007-12-31 00:00:00
vol.12 ch.75 v2 : A Cat, a Girl, and the Place for Tomorrow [End] 32 Pages 2017-12-19 21:38:11
vol.12 ch.74 v2 : The Ending of the Cat’s World 26 Pages 2017-12-19 21:38:11
vol.12 ch.73 v2 : Phantasmagoria in White Cat 25 Pages 2017-12-19 21:38:11
vol.12 ch.72 v2 : Phantasmagoria in Cat 21 Pages 2017-12-19 21:38:11
vol.12 ch.71 v2 : The Light Beam’s Wild Cat 24 Pages 2017-12-19 21:38:11
vol.12 ch.70 v2 : A Prompt Cat Rondo 21 Pages 2017-12-19 21:38:11
vol.12 ch.69 v2 : The Assault Cat’s Homeroom 31 Pages 2017-12-19 21:38:12
vol.12 ch.75 : A Cat, a Girl, and the Place for Tomorrow [End] 32 Pages 2014-01-16 19:40:00
vol.12 ch.74 : The Ending of the Cat’s World 26 Pages 2014-01-16 19:09:00
vol.12 ch.73 : Phantasmagoria in White Cat 25 Pages 2014-01-16 19:08:00
vol.12 ch.72 : Phantasmagoria in Cat 21 Pages 2014-01-16 19:07:00
vol.12 ch.71 : The Light Beam’s Wild Cat 24 Pages 2014-01-16 19:07:00
vol.12 ch.70 : A Prompt Cat Rondo 21 Pages 2014-01-01 10:06:00
vol.12 ch.69 : The Assault Cat’s Homeroom 31 Pages 2014-01-01 10:05:00
vol.11 ch.68 v2 : A Broken Cat's Shadow on a Clear Mirror 27 Pages 2017-12-19 21:38:12
vol.11 ch.67 v2 : A Cat Trigger for a Chaotic Ending 25 Pages 2017-12-19 21:38:12
vol.11 ch.66 v2 : The Cat Trigger for an Accidental Discharge 25 Pages 2017-12-19 21:38:12
vol.11 ch.65 v2 : The Stagnant Witch Cat's Juncture 27 Pages 2017-12-19 21:38:12
vol.11 ch.64 v2 : The Cat Looking for a Blue Sky 25 Pages 2017-12-19 21:38:12
vol.11 ch.63 v2 : The Gouging Demon Cat's Fangs 23 Pages 2017-12-19 21:38:12
vol.11 ch.68 : A Broken Cat's Shadow on a Clear Mirror 27 Pages 2013-11-22 21:28:00
vol.11 ch.67 : A Cat Trigger for a Chaotic Ending 25 Pages 2013-11-14 18:25:00
vol.11 ch.66 : The Cat Trigger for an Accidental Discharge 25 Pages 2013-10-06 21:13:00
vol.11 ch.65 : The Stagnant Witch Cat's Juncture 27 Pages 2013-09-09 00:13:00
vol.11 ch.64 : The Cat Looking for a Blue Sky 25 Pages 2013-08-09 15:57:00
vol.11 ch.63 : The Gouging Demon Cat's Fangs 23 Pages 2013-03-15 06:16:00
vol.10 ch.62 v2 : The Cat That Bites the Cornered Rat 25 Pages 2017-12-19 21:38:12
vol.10 ch.61 v2 : The Dreaming Cat Can No Longer Return 21 Pages 2017-12-19 21:38:12
vol.10 ch.60 v2 : After This, Small Feline Magic 23 Pages 2017-12-19 21:38:12
vol.10 ch.59 v2 : The Moment the Cat Witch Wavers 23 Pages 2017-12-19 21:38:12
vol.10 ch.58 v2 : Pure Lips of the Cat Team 25 Pages 2017-12-19 21:38:12
vol.10 ch.57 v2 : Water, Cat, and Illusion House 21 Pages 2017-12-19 21:38:12
vol.10 ch.56 v2 : Cat in the Night Wind 32 Pages 2017-12-19 21:38:12
vol.10 ch.62 : The Cat That Bites the Cornered Rat 25 Pages 2012-12-27 06:42:00
vol.10 ch.61 : The Dreaming Cat Can No Longer Return 21 Pages 2012-12-11 02:46:00
vol.10 ch.60 : After This, Small Feline Magic 23 Pages 2012-12-09 04:08:00
vol.10 ch.59 : The Moment the Cat Witch Wavers 23 Pages 2012-11-27 03:24:00
vol.10 ch.58 : Pure Lips of the Cat Team 25 Pages 2012-11-02 04:40:00
vol.10 ch.57 : Water, Cat, and Illusion House 21 Pages 2012-09-12 04:40:00
vol.10 ch.56 : Cat in the Night Wind 32 Pages 2012-09-07 02:21:00
vol.9 ch.55 v2 : Dream Stage of the Twilight Cat 23 Pages 2017-12-19 21:38:12
vol.9 ch.54 v2 : The Cat's Merry ☆ Merry-Go-Round 25 Pages 2017-12-19 21:38:12
vol.9 ch.53 v2 : Cat and Meeting 17 Pages 2017-12-19 21:38:12
vol.9 ch.52 v2 : Round Table vs. Cat 27 Pages 2017-12-19 21:38:12
vol.9 ch.51v2 v2 : Cat at the Demon-Slaver's Round Table 21 Pages 2017-12-19 21:38:12
vol.9 ch.50 v2 : Complicated Cat Ballad 21 Pages 2017-12-19 21:38:12
vol.9 ch.49 v2 : The Cat of the Gracefully Falling Spiral 35 Pages 2017-12-19 21:38:12
vol.9 ch.55 : Dream Stage of the Twilight Cat 23 Pages 2012-08-23 04:29:00
vol.9 ch.54 : The Cat's Merry ☆ Merry-Go-Round 25 Pages 2012-08-18 06:11:00
vol.9 ch.53 : Cat and Meeting 17 Pages 2012-08-05 04:44:00
vol.9 ch.52 : Round Table vs. Cat 27 Pages 2012-07-31 04:52:00
vol.9 ch.51v2 : Cat at the Demon-Slaver's Round Table 21 Pages 2012-07-24 22:59:00
vol.9 ch.50 : Complicated Cat Ballad 21 Pages 2012-05-23 04:33:00
vol.9 ch.49 : The Cat of the Gracefully Falling Spiral 35 Pages 2012-05-17 04:28:00
vol.8 ch.48 v2 : Cats Playing in the Demon Month 25 Pages 2017-12-19 21:38:12
vol.8 ch.47 v2 : Demon Claws Vs. Cat Claws 25 Pages 2017-12-19 21:38:12
vol.8 ch.46 v2 : The Cat Runs Into the Hatchery 25 Pages 2017-12-19 21:38:12
vol.8 ch.45 v2 : Tests for Cats are Taken at Night 25 Pages 2017-12-19 21:38:12
vol.8 ch.44 v2 : The Cats' (Mini) Twilight 27 Pages 2017-12-19 21:38:12
vol.8 ch.43 v2 : Steamy Cat Fight 33 Pages 2017-12-19 21:38:12
vol.8 ch.48 : Cats Playing in the Demon Month 25 Pages 2012-05-09 05:59:00
vol.8 ch.47 : Demon Claws Vs. Cat Claws 25 Pages 2011-12-13 06:29:00
vol.8 ch.46 : The Cat Runs Into the Hatchery 25 Pages 2011-09-19 23:13:00
vol.8 ch.45 : Tests for Cats are Taken at Night 25 Pages 2011-09-16 09:51:00
vol.8 ch.44 : The Cats' (Mini) Twilight 27 Pages 2011-08-06 03:45:00
vol.8 ch.43 : Steamy Cat Fight 33 Pages 2011-07-01 06:54:00
vol.7 ch.42 v2 : Scarlet's Yasotsuna 25 Pages 2017-12-19 21:38:12
vol.7 ch.41 v2 : The Traveling Cat At Nightfall Special 23 Pages 2017-12-19 21:38:12
vol.7 ch.40 v2 : Snow Cat And The Incomplete Snow 21 Pages 2017-12-19 21:38:12
vol.7 ch.39 v2 : I Must Protect My Master And Comrades 24 Pages 2017-12-19 21:38:12
vol.7 ch.38 v2 : Cat's With Sharp Claws Don't Look Around 20 Pages 2017-12-19 21:38:12
vol.7 ch.37 v2 : The Cat's Wintry Poetry 21 Pages 2017-12-19 21:38:12
vol.7 ch.36 v2 : Dance Of The Merciless Cat 22 Pages 2017-12-19 21:38:12
vol.7 ch.42 : Scarlet's Yasotsuna 25 Pages 2011-07-01 06:51:00
vol.7 ch.41 : The Traveling Cat At Nightfall Special 23 Pages 2011-07-01 06:50:00
vol.7 ch.40 : Snow Cat And The Incomplete Snow 21 Pages 2011-07-01 06:50:00
vol.7 ch.39 : I Must Protect My Master And Comrades 24 Pages 2011-07-01 06:49:00
vol.7 ch.38 : Cat's With Sharp Claws Don't Look Around 20 Pages 2011-07-01 06:44:00
vol.7 ch.37 : The Cat's Wintry Poetry 21 Pages 2011-07-01 06:43:00
vol.7 ch.36 : Dance Of The Merciless Cat 22 Pages 2011-07-01 06:42:00
vol.6 ch.35 v2 : The Cat's Christmas Eve War 25 Pages 2017-12-19 21:38:12
vol.6 ch.34 v2 : Full Throttle Afterimage, Cat Version 21 Pages 2017-12-19 21:38:12
vol.6 ch.33 v2 : The Cat's Night and The Wet Snake 28 Pages 2017-12-19 21:38:12
vol.6 ch.32 v2 : The Bad Forecast And The Uncertain Cat 24 Pages 2017-12-19 21:38:12
vol.6 ch.31 v2 : The Corroding World of The Ayakashi 17 Pages 2017-12-19 21:38:12
vol.6 ch.30 v2 : And The Cat Begins To Move 26 Pages 2017-12-19 21:38:12
vol.6 ch.29 v2 : Still An Ordinary Cat 19 Pages 2017-12-19 21:38:12
vol.6 ch.35 : The Cat's Christmas Eve War 25 Pages 2011-07-01 06:42:00
vol.6 ch.34 : Full Throttle Afterimage, Cat Version 21 Pages 2011-07-01 06:41:00
vol.6 ch.33 : The Cat's Night and The Wet Snake 28 Pages 2011-07-01 06:41:00
vol.6 ch.32 : The Bad Forecast And The Uncertain Cat 24 Pages 2011-07-01 06:40:00
vol.6 ch.31 : The Corroding World of The Ayakashi 17 Pages 2011-07-01 06:39:00
vol.6 ch.30 : And The Cat Begins To Move 26 Pages 2011-07-01 06:38:00
vol.6 ch.29 : Still An Ordinary Cat 19 Pages 2011-07-01 06:37:00
vol.5 ch.28 v2 : The Meow That Called In The Darkness 32 Pages 2017-12-19 21:38:12
vol.5 ch.27 v2 : Miss Neko Festival 9 Pages 2017-12-19 21:38:12
vol.5 ch.26 v2 : The Kitten's form is in the Blood 29 Pages 2017-12-19 21:38:12
vol.5 ch.28 : The Meow That Called In The Darkness 32 Pages 2011-07-01 06:36:00
vol.5 ch.27.5 9 Pages 2011-07-01 06:35:00
vol.5 ch.27 : Miss Neko Festival 24 Pages 2011-07-01 06:34:00
vol.5 ch.26 : The Kitten's form is in the Blood 29 Pages 2011-07-01 06:34:00
vol.4 ch.25 v2 : Counter Attack of the Loli Cat!! 29 Pages 2017-12-19 21:38:12
vol.4 ch.24 v2 : Kitten Impossible 27 Pages 2017-12-19 21:38:12
vol.4 ch.23 v2 : Neko-neko Phantasm 24 Pages 2017-12-19 21:38:12
vol.4 ch.22 v2 : The Artistic Cat and Cliff-fall Memory 27 Pages 2017-12-19 21:38:12
vol.4 ch.21 v2 : Curiosity Killed the Cat 29 Pages 2017-12-19 21:38:12
vol.4 ch.20 v2 : Drunken Ailurophobia 30 Pages 2017-12-19 21:38:12
vol.4 ch.19 v2 : The Capriccio of the Kittens 27 Pages 2017-12-19 21:38:12
vol.4 ch.25 : Counter Attack of the Loli Cat!! 29 Pages 2012-05-17 04:41:00
vol.4 ch.24 : Kitten Impossible 27 Pages 2012-05-17 04:41:00
vol.4 ch.23 : Neko-neko Phantasm 24 Pages 2012-05-17 04:40:00
vol.4 ch.22 : The Artistic Cat and Cliff-fall Memory 27 Pages 2012-05-17 04:40:00
vol.4 ch.21 : Curiosity Killed the Cat 29 Pages 2012-05-17 04:39:00
vol.4 ch.20 : Drunken Ailurophobia 30 Pages 2012-05-17 04:39:00
vol.4 ch.19 : The Capriccio of the Kittens 27 Pages 2012-05-17 04:38:00
vol.3 ch.18 v2 : And the Cat Begins the Confrontation 25 Pages 2017-12-19 21:38:12
vol.3 ch.17 v2 : The Cat's Emotions and the Magic Girls Melancholy 26 Pages 2017-12-19 21:33:04
vol.3 ch.16 v2 : Chu x Cat x Kiss 29 Pages 2017-12-19 21:33:05
vol.3 ch.15 v2 : The Cat That Proudly Fought Back 25 Pages 2017-12-19 21:33:05
vol.3 ch.14 v2 : The Usual Mindset of the Frustrated Cat 25 Pages 2017-12-19 21:33:05
vol.3 ch.13 v2 : The Cat's Memories and Science 29 Pages 2017-12-19 21:33:05
vol.3 ch.18 : And the Cat Begins the Confrontation 25 Pages 2012-05-17 04:38:00
vol.3 ch.17 : The Cat's Emotions and the Magic Girls Melancholy 26 Pages 2012-05-17 04:37:00
vol.3 ch.16 : Chu x Cat x Kiss 29 Pages 2012-05-17 04:37:00
vol.3 ch.15 : The Cat That Proudly Fought Back 25 Pages 2012-05-17 04:36:00
vol.3 ch.14 : The Usual Mindset of the Frustrated Cat 25 Pages 2012-05-17 04:31:00
vol.3 ch.13 : The Cat's Memories and Science 29 Pages 2012-05-17 04:29:00
vol.2 ch.7-12 v2 166 Pages 2017-12-19 21:33:05
vol.2 ch.7-12 166 Pages 2011-07-01 06:57:00
vol.1 ch.1-6 v2 170 Pages 2017-12-19 21:33:05
vol.1 ch.1-6 170 Pages 2011-07-01 06:56:00
ch.75 : A Cat A Girl And The Place For Tomorrow 32 Pages 2014-01-16 00:00:00
ch.74 : The Ending Of The Cat's World 26 Pages 2014-01-16 00:00:00
ch.73 : Phantasmagoria In White Cat 25 Pages 2014-01-16 00:00:00
ch.72 : Phantasmagoria In Cat 21 Pages 2014-01-16 00:00:00
ch.71 : The Light Beam's Wildcat 24 Pages 2014-01-16 00:00:00
ch.70 : A Promp Cat Rondo 21 Pages 2014-01-01 00:00:00
ch.69 : The Assault Cat’s Homeroom 31 Pages 2014-01-01 00:00:00
ch.68 : A Broken Cat's Shadow on a Clear Mirror 27 Pages 2013-11-23 00:00:00
ch.67 : A Cat Trigger For A Chaotic Ending 25 Pages 2013-11-14 00:00:00
ch.66 : The Cat Trigger For An Accidental Discharge 25 Pages 2013-10-06 00:00:00
ch.65 : The Stagnant Witch Cat's Juncture 27 Pages 2013-09-09 00:00:00
ch.64 : The Cat Looking A Blue Sky 25 Pages 2013-08-09 00:00:00
ch.63 : The Gouging Demon Cat's Fangs 23 Pages 2013-03-15 00:00:00
ch.62 : The Cat That Bites the Cornered Rat 25 Pages 2012-12-27 00:00:00
ch.61 : The Dreaming Cat Can No Longer Return 21 Pages 2012-12-11 00:00:00
ch.60 : After This, Small Feline Magic 23 Pages 2012-12-09 00:00:00
ch.59 : The Moment the Cat Witch Wavers 23 Pages 2012-11-27 00:00:00
ch.58 : Pure Lips of the Cat Team 25 Pages 2012-11-02 00:00:00
ch.57 : Water, Cat,, And Illusion House 21 Pages 2012-09-12 00:00:00
ch.56 : Can In The Night Wind 32 Pages 2012-09-07 00:00:00
ch.55 : Dream Stage Of The Twilight Cat 23 Pages 2012-08-23 00:00:00
ch.54 : The Cat's Merry * Merry-Go-Round 25 Pages 2012-08-18 00:00:00
ch.53 : Cat and Meeting 17 Pages 2012-08-05 00:00:00
ch.52 : Round Table vs. Cat 27 Pages 2012-07-31 00:00:00
ch.51 : Cat at the Demon-Slaver's Round Table 21 Pages 2012-07-24 00:00:00
ch.50 : Complicated Cat Ballad 21 Pages 2012-05-23 00:00:00
ch.49 : The Cat of the Gracefully Falling Spiral 35 Pages 2012-05-17 00:00:00
ch.48 : Cats Playing In The Demon Month 25 Pages 2012-05-09 00:00:00
ch.47 : Demon Claws vs Cat Claws 25 Pages 2011-12-13 00:00:00
ch.46 : The Cat Runs In to The Hitchery 25 Pages 2011-09-20 00:00:00
ch.45 : Tests For Cats Are Taken At Night 25 Pages 2011-09-20 00:00:00
ch.44 : The Cat's Twilight 27 Pages 2011-08-06 00:00:00
ch.43 : Steamy Cat Fight 33 Pages 2011-06-01 00:00:00
ch.42 : Scarlet's Yasotsuna 25 Pages 2010-12-01 00:00:00
ch.41 : The Traveling Cat At Nightfall Special 23 Pages 2010-09-07 00:00:00
ch.40 : Snow Cat And The Incomplete Snow 21 Pages 2010-09-07 00:00:00
ch.39 : I Must Protect MY Master And Comrades 24 Pages 2010-09-07 00:00:00
ch.38 : Cats With Sharp Claws Dont Look Around 20 Pages 2010-01-23 00:00:00
ch.37 : The Cats Wintry Poetry 21 Pages 2010-01-04 00:00:00
ch.36 : Dance of the Merciless Cat 22 Pages 2009-10-21 00:00:00
ch.35 : The Cat's Christmas Eve War 25 Pages 2009-09-20 00:00:00
ch.34 : Full Throttle Afterimage, Cat Version 21 Pages 2009-09-20 00:00:00
ch.33 : The Cat's Night, And The Wet Snake 27 Pages 2009-09-20 00:00:00
ch.32 : The Bad Forecast and the Uncertain Cat 25 Pages 2009-09-20 00:00:00
ch.31 : The Corroding World Of The Ayakashi 17 Pages 2009-09-20 00:00:00
ch.30 : And the Cat begins to Move 25 Pages 2009-09-20 00:00:00
ch.29 : Still an Ordinary Cat 19 Pages 2009-09-20 00:00:00
ch.28 : The Meow That Called In The Darkness 32 Pages 2009-09-20 00:00:00
ch.27 : Miss Neko Festival 24 Pages 2009-09-20 00:00:00
ch.26 : The Kittens Form Is In The Blood 29 Pages 2009-09-20 00:00:00
ch.25 : Counter Attack of the Loli Cat!! 25 Pages 2009-09-20 00:00:00
ch.24 : Kitten Impossible 30 Pages 2009-08-12 00:00:00
ch.23 : Neko-neko Phantasm 25 Pages 2009-08-12 00:00:00
ch.22 : The Artistic Cat and Cliff-fall Memory 27 Pages 2009-08-12 00:00:00
ch.21 : Curiosity Killed the Cat 25 Pages 2009-08-12 00:00:00
ch.20 : Drunken Ailurophobia 30 Pages 2009-08-12 00:00:00
ch.19 : The Capriccio of the Kittens 27 Pages 2009-08-12 00:00:00
ch.18 : And the Cat Begins the Confrontation 25 Pages 2009-08-12 00:00:00
ch.17 : The Cat's Emotions and the Magic Girls Melancholy 26 Pages 2009-08-12 00:00:00
ch.16 : Chu x Cat x Kiss 29 Pages 2009-08-12 00:00:00
ch.15 : The Cat That Proudly Fought Back 25 Pages 2009-08-12 00:00:00
ch.14 : The Usual Mindset of the Frustrated Cat 25 Pages 2009-08-12 00:00:00
ch.13 : The Cat's Memories and Science 29 Pages 2009-08-12 00:00:00
ch.12 : The Cat Who Lost Her Heart and the Teen Who Stole It 27 Pages 2009-08-12 00:00:00
ch.11 : The Demon Slayer Cat 27 Pages 2009-08-12 00:00:00
ch.10 : The Alluring Cat of Twilight 25 Pages 2009-08-12 00:00:00
ch.9 : The Girl Who Loves Cats' Red Ribbon 25 Pages 2009-08-12 00:00:00
ch.8 : Made in Cat 30 Pages 2009-08-12 00:00:00
ch.7 : A Cat in a Forest of Feelings 29 Pages 2009-08-12 00:00:00
ch.6 : Cats and Water 26 Pages 2009-08-12 00:00:00
ch.5 : A Cat-astrophic Scramble at the Beach 29 Pages 2009-08-12 00:00:00
ch.4 : A Cat-tease Shopping Trip 25 Pages 2009-08-12 00:00:00
ch.3 : Cat Claws 25 Pages 2009-08-12 00:00:00
ch.2 : A Cat-Style Princess Bodyguard 28 Pages 2009-08-12 00:00:00
ch.1 : Cats, Girls and Allergies 35 Pages 2009-08-12 00:00:00

RELATIVE MANGA